Norfolk, NE

5:19 AM CDT on August 29, 2016 (GMT -0500)
Stefan Memorial

Weather History for KOFK - February, 2012

Change the Weather History Date:

Sunday, February 26, 2012

  Actual Average Record
Temperature  
Mean Temperature 36 °F 30 °F  
Max Temperature 48 °F 41 °F 72 °F (1896)
Min Temperature 23 °F 20 °F -22 °F (1934)
Degree Days  
Heating Degree Days 29 35  
Month to date heating degree days 936 1001  
Since 1 July heating degree days 4515 5023  
Cooling Degree Days 0 0  
Month to date cooling degree days 0 0  
Year to date cooling degree days 0 0  
Moisture  
Dew Point 20 °F    
Average Humidity 56    
Maximum Humidity 78    
Minimum Humidity 33    
Precipitation  
Precipitation 0.00 in 0.04 in 0.70 in (1899)
Month to date precipitation 1.05 0.70  
Year to date precipitation 1.23 1.29  
Snow  
Snow 0.00 in 0.20 in - ()
Month to date snowfall 5.1 5.2  
Since 1 July snowfall 15.3 22.5  
Snow Depth 0.00 in    
Sea Level Pressure  
Sea Level Pressure 29.93 in    
Wind  
Wind Speed 15 mph (WNW)    
Max Wind Speed 36 mph    
Max Gust Speed 44 mph    
Visibility 10 miles    
Events      
T = Trace of Precipitation, MM = Missing Value Source: NWS Daily Summary

Daily Weather History Graph

Daily Weather History Graph

Search for Another Location

Airport or City:

Trip Planner

Search our weather history database for the weather conditions in past years. The results will help you decide how hot, cold, wet, or windy it might be!

Date:

Astronomy

Feb. 26, 2012 Rise Set
Actual Time 7:10 AM CST 6:15 PM CST
Civil Twilight 6:42 AM CST 6:43 PM CST
Nautical Twilight 6:09 AM CST 7:16 PM CST
Astronomical Twilight 5:37 AM CST 7:48 PM CST
Moon 9:00 AM CST (2/26) 11:21 PM CST (2/26)
Length of Visible Light 12h 01m
Length of Day
11h 05m
Waxing Crescent, 21% of the Moon is Illuminated
Feb 26
Waxing Crescent
Feb 29
First Quarter
Mar 8
Full
Mar 14
Last Quarter
Mar 22
New

Hourly Weather History & Observations

Time (CST) Temp. Windchill Dew Point Humidity Pressure Visibility Wind Dir Wind Speed Gust Speed Precip Events Conditions
12:56 AM 30.9 °F 25.2 °F 24.1 °F 76% 29.68 in 10.0 mi SE 5.8 mph - N/A   Clear
1:56 AM 28.0 °F - 21.9 °F 78% 29.67 in 10.0 mi Calm Calm - N/A   Clear
2:56 AM 30.9 °F - 23.0 °F 72% 29.64 in 10.0 mi Calm Calm - N/A   Clear
3:56 AM 33.1 °F 25.5 °F 24.1 °F 70% 29.65 in 10.0 mi WSW 9.2 mph - N/A   Clear
4:56 AM 34.0 °F 24.6 °F 21.0 °F 59% 29.69 in 10.0 mi SW 13.8 mph - N/A   Clear
5:56 AM 36.0 °F 26.7 °F 19.0 °F 50% 29.70 in 10.0 mi SW 15.0 mph - N/A   Clear
6:56 AM 35.1 °F 25.9 °F 19.0 °F 52% 29.74 in 10.0 mi SW 13.8 mph - N/A   Clear
7:56 AM 34.0 °F 24.2 °F 19.9 °F 56% 29.78 in 10.0 mi SW 15.0 mph - N/A   Clear
8:56 AM 39.9 °F 32.1 °F 23.0 °F 51% 29.81 in 10.0 mi WSW 13.8 mph 23.0 mph N/A   Clear
9:56 AM 44.1 °F 34.2 °F 21.0 °F 40% 29.83 in 10.0 mi West 28.8 mph 36.8 mph N/A   Clear
10:56 AM 43.0 °F 33.5 °F 19.9 °F 40% 29.89 in 10.0 mi WNW 24.2 mph 35.7 mph N/A   Clear
11:56 AM 42.1 °F 33.6 °F 21.0 °F 43% 29.93 in 10.0 mi WNW 18.4 mph 26.5 mph N/A   Overcast
12:56 PM 44.1 °F 36.2 °F 23.0 °F 43% 29.93 in 10.0 mi WNW 18.4 mph 26.5 mph N/A   Overcast
1:56 PM 45.0 °F 37.1 °F 21.9 °F 40% 29.94 in 10.0 mi WNW 19.6 mph 26.5 mph N/A   Overcast
2:56 PM 48.0 °F - 21.0 °F 34% 29.95 in 10.0 mi WNW 17.3 mph 29.9 mph N/A   Clear
3:56 PM 46.9 °F - 21.0 °F 36% 29.98 in 10.0 mi WNW 18.4 mph - N/A   Partly Cloudy
4:56 PM 45.0 °F 37.1 °F 18.0 °F 34% 30.00 in 10.0 mi WNW 19.6 mph 28.8 mph N/A   Clear
5:56 PM 41.0 °F 32.2 °F 18.0 °F 40% 30.04 in 10.0 mi NW 18.4 mph 25.3 mph N/A   Clear
6:56 PM 35.1 °F 25.9 °F 19.0 °F 52% 30.11 in 10.0 mi NW 13.8 mph - N/A   Clear
7:56 PM 32.0 °F 22.1 °F 17.1 °F 54% 30.17 in 10.0 mi NW 13.8 mph - N/A   Clear
8:56 PM 30.0 °F 18.7 °F 15.1 °F 54% 30.19 in 10.0 mi WNW 16.1 mph - N/A   Clear
9:56 PM 26.1 °F 16.8 °F 16.0 °F 66% 30.26 in 10.0 mi NNW 9.2 mph - N/A   Clear
10:56 PM 24.1 °F 11.0 °F 12.0 °F 60% 30.30 in 10.0 mi NW 16.1 mph 24.2 mph N/A   Clear
11:56 PM 23.0 °F 8.0 °F 9.0 °F 55% 30.33 in 10.0 mi NW 20.7 mph 29.9 mph N/A   Clear